Theta_e
309 310 312 312 313 314 314 315 314 314 314 315 314 312 313 314 317 318 316 321 322 324 324 322 321 326 332 332 333 331 337 339 340 339 339 339 342 340 338 340 337 330 334 324 323
310 310 311 312 313 314 315 315 315 314 315 316 313 312 313 314 319 318 319 321 324 323 324 324 324 327 325 332 334 333 331 337 337 336 336 339 339 339 341 339 327 322 321 322 325
309 310 310 312 313 314 315 315 315 315 316 317 315 312 313 318 326 323 320 324 324 321 322 322 324 325 330 331 335 332 336 333 338 336 336 339 339 340 340 341 327 324 321 320 321
308 310 310 311 313 314 315 316 315 317 318 318 316 312 313 324 328 328 326 323 322 320 320 322 325 332 331 332 333 336 332 334 336 336 338 340 339 342 339 339 330 322 321 321 321
308 309 310 311 313 314 315 316 316 318 319 317 316 313 316 324 326 329 326 324 322 320 320 319 332 333 335 336 334 336 336 334 335 334 338 339 341 341 340 330 323 322 322 321 320
308 309 310 311 312 314 315 316 317 319 319 316 316 313 324 326 326 326 324 322 322 321 322 320 326 331 333 335 333 334 333 334 334 334 338 342 341 341 340 326 324 323 322 321 321
307 308 309 310 312 314 316 316 318 319 319 316 316 315 320 324 325 325 323 322 323 322 323 327 332 330 331 336 334 334 337 334 338 338 341 340 345 344 338 327 325 324 323 322 321
307 308 309 310 312 314 316 317 319 320 317 316 316 317 318 322 324 323 322 322 324 324 323 326 334 329 332 330 331 337 334 339 336 340 341 340 346 343 333 327 327 326 325 325 323
307 308 309 310 311 313 316 319 318 320 320 317 321 320 320 323 324 324 323 324 323 322 322 333 331 329 329 328 326 330 336 338 340 338 343 341 343 337 331 329 328 327 326 325 324
306 307 308 310 311 314 318 320 318 322 319 320 322 318 321 324 323 324 325 323 323 322 325 327 324 329 326 327 330 328 336 337 339 337 342 345 345 341 339 331 330 328 328 326 325
306 307 308 310 311 313 318 319 315 316 317 317 316 320 319 321 322 323 324 324 322 321 321 321 322 322 321 326 328 329 334 336 334 336 342 343 344 339 341 339 337 333 330 329 326
306 307 308 310 311 315 317 314 314 315 315 315 314 316 318 319 321 323 324 324 323 322 323 321 323 323 322 325 330 335 336 336 335 337 338 336 337 339 340 343 341 342 339 332 329
306 307 308 310 312 314 316 316 313 314 314 317 316 317 318 319 321 323 323 322 324 324 323 324 324 322 323 324 333 334 335 334 335 338 337 332 331 336 342 343 341 341 341 338 333
306 307 308 310 312 311 314 314 313 315 319 321 321 319 319 319 323 322 323 323 323 324 322 323 322 323 322 325 331 332 329 333 337 334 336 330 335 332 340 340 343 341 340 340 337
306 307 308 309 310 310 313 313 316 317 326 325 321 319 318 321 323 323 323 323 323 324 323 324 324 323 325 326 329 331 332 334 335 336 335 335 335 336 339 337 336 334 339 337 334
306 308 309 310 310 312 312 313 318 322 326 323 319 317 319 320 321 322 323 323 322 323 323 322 321 323 325 328 331 332 330 326 329 330 335 336 337 337 336 335 333 333 332 332 330
307 308 309 309 310 311 312 317 321 327 326 323 317 317 318 319 321 322 321 324 324 325 325 322 323 321 326 330 329 328 328 332 333 334 335 333 340 335 332 332 334 334 331 331 330
307 309 310 310 311 311 315 318 328 328 329 326 318 316 317 318 319 319 320 319 321 321 321 323 324 324 325 331 332 332 329 331 336 335 332 331 341 334 332 333 331 333 332 331 330
308 310 311 312 315 316 313 320 325 327 327 323 324 319 319 318 319 319 319 319 320 319 322 322 323 325 331 331 330 332 332 328 330 328 330 328 330 328 334 334 335 333 332 330 331
308 310 311 315 317 317 310 315 322 324 325 325 327 323 324 324 318 318 318 320 321 320 320 322 324 323 330 331 331 330 328 331 327 333 335 332 334 332 333 333 335 334 332 330 331
311 308 314 316 317 311 312 311 318 320 321 323 325 325 329 330 320 317 319 321 323 322 320 320 322 323 329 329 330 332 332 330 326 328 334 337 334 326 332 331 332 332 330 331 332
309 309 316 316 314 309 312 315 318 323 324 325 326 328 329 328 322 322 323 327 329 323 323 323 320 324 326 328 327 329 330 328 330 331 332 332 334 333 332 331 331 332 331 330 330
303 308 319 317 316 314 313 317 321 322 322 322 324 326 327 330 329 331 329 329 330 329 330 328 326 329 329 326 326 331 332 329 325 328 335 334 333 333 334 332 331 331 329 327 326
306 313 315 311 310 314 318 318 322 321 321 322 324 327 327 330 330 334 335 334 330 331 333 328 324 325 327 326 326 332 331 332 329 331 331 331 330 329 334 334 333 331 329 326 327
304 309 317 319 318 317 318 319 320 320 322 319 324 332 329 335 333 334 330 333 333 328 329 320 324 330 328 327 332 332 332 332 332 330 333 332 330 330 333 333 332 332 330 330 328
306 312 312 317 318 323 318 321 320 321 323 324 331 337 336 337 335 336 332 330 333 330 331 325 326 332 334 333 334 333 332 334 334 333 331 335 335 334 334 332 332 331 331 330 328
308 314 316 319 320 320 317 319 319 321 322 323 331 337 333 333 334 332 330 326 327 330 328 330 332 331 330 333 329 325 333 336 337 337 337 338 333 337 336 335 333 331 329 329 329
Wind_Speed
23 23 23 25 26 28 28 29 29 26 26 17 12 8 8 6 2 2 3 2 6 10 8 10 6 3 4 3 4 3 4 3 7 6 5 5 4 2 1 2 1 3 4 9 18
22 23 23 25 27 29 29 30 30 26 28 17 11 8 8 7 1 4 6 8 7 10 11 11 4 5 3 2 2 4 4 7 7 5 5 6 5 7 5 4 3 4 9 19 18
22 22 24 25 27 29 29 31 31 28 29 14 9 7 8 6 0 3 8 8 7 9 3 3 13 5 3 2 0 2 3 4 4 5 6 7 4 4 7 3 6 11 12 13 14
23 23 24 25 27 29 31 33 32 34 24 9 6 7 5 1 4 3 6 11 7 5 2 5 5 1 4 4 1 1 0 6 4 5 7 8 5 2 7 5 8 12 18 14 10
23 24 25 25 27 29 31 34 33 33 16 5 4 5 1 0 5 1 8 11 6 4 3 4 3 3 5 3 3 1 2 3 4 8 4 7 7 4 8 2 12 14 13 10 12
24 24 26 27 27 30 31 33 35 28 10 2 3 3 1 3 4 2 9 9 4 4 2 3 3 1 6 2 2 3 4 3 2 6 4 4 3 1 4 8 10 11 11 9 11
25 25 25 28 28 30 32 34 35 17 4 1 3 1 0 4 3 6 10 7 6 3 3 2 9 6 2 3 2 2 4 4 1 4 1 4 5 13 6 13 14 13 10 9 13
24 25 25 28 27 29 31 34 22 6 3 3 3 0 5 3 3 6 10 5 4 4 3 2 12 8 4 1 6 5 5 2 3 7 2 8 11 11 10 14 13 13 11 11 11
23 24 25 28 27 29 30 28 12 4 6 2 1 1 4 4 3 6 8 2 2 5 2 6 5 5 3 4 3 5 3 5 6 7 4 6 9 5 10 13 13 13 11 9 8
23 25 27 27 27 27 24 17 6 2 10 3 1 3 1 1 2 3 5 6 2 5 4 6 5 3 3 3 5 4 4 4 5 7 6 7 22 4 8 12 14 12 10 8 9
23 25 27 27 26 25 19 7 8 5 7 2 7 3 4 7 5 4 4 6 0 6 2 3 4 3 8 10 5 2 3 4 3 4 6 11 13 9 8 12 8 9 13 14 13
22 25 27 27 28 11 10 9 7 8 7 5 8 5 12 6 2 1 8 4 2 2 1 4 2 4 6 1 4 3 3 5 1 2 4 0 10 2 5 11 14 13 15 13 14
22 24 27 27 16 11 5 9 20 2 2 7 5 4 5 9 4 4 7 3 2 2 1 3 4 7 5 5 3 3 4 1 2 2 2 5 7 4 3 2 7 10 10 10 14
22 23 26 28 4 19 5 14 27 6 4 6 3 6 4 3 2 3 6 5 3 2 5 2 4 5 8 3 3 4 3 5 4 4 2 3 4 4 3 7 6 9 12 16 12
21 23 23 23 13 9 9 24 18 4 3 1 3 1 1 7 3 2 2 5 6 3 4 6 4 7 4 5 0 3 4 5 3 3 1 5 3 7 5 6 6 8 13 7 10
23 22 23 14 19 11 16 25 2 5 1 2 2 3 4 2 1 2 2 4 3 4 1 5 3 3 4 3 4 6 4 7 4 3 4 5 3 6 3 4 8 4 4 7 9
25 22 23 20 6 19 21 5 4 3 3 1 3 3 2 1 0 2 2 2 4 3 3 6 5 4 2 3 4 4 6 3 4 5 4 4 2 8 6 5 4 9 11 11 10
27 24 18 19 19 17 6 5 4 2 4 4 2 3 5 5 3 1 3 1 1 5 3 3 7 2 4 2 3 3 4 5 1 1 5 4 4 5 4 2 4 6 8 9 10
29 18 13 6 7 5 5 3 4 3 3 5 2 4 1 2 3 2 5 4 7 8 8 5 5 3 2 3 3 1 2 3 6 3 2 3 7 7 2 1 5 8 9 10 13
24 12 9 8 7 2 5 4 3 4 5 2 2 2 3 1 4 5 6 3 5 10 4 7 2 3 4 3 5 2 4 3 3 0 3 5 5 5 4 6 3 6 9 10 12
9 4 8 2 2 5 2 5 5 7 4 2 2 2 1 1 4 5 5 3 2 2 6 5 4 5 1 1 5 1 1 5 4 4 4 2 7 5 5 7 6 6 7 8 9
5 2 5 3 3 1 1 4 5 6 3 2 3 2 1 2 3 2 3 4 4 6 6 1 5 1 6 3 2 1 3 5 5 4 2 4 6 3 3 5 3 5 6 6 6
2 3 2 1 2 2 5 4 4 4 4 4 3 3 3 3 4 2 3 1 5 2 7 6 3 3 8 6 4 1 2 5 4 3 5 4 6 2 2 4 5 4 7 7 7
2 3 4 4 0 4 3 4 4 4 4 2 2 3 4 7 6 3 5 6 5 4 8 7 3 6 5 6 3 5 3 3 4 3 3 5 6 4 6 7 3 5 3 7 8
2 2 2 1 3 1 1 3 5 5 2 6 4 2 1 4 4 4 5 5 5 3 4 4 3 4 4 6 3 3 1 3 5 3 4 3 6 7 7 3 3 4 3 7 8
1 2 3 2 3 0 0 3 4 5 1 3 5 3 2 4 2 1 1 1 2 5 3 3 1 1 2 2 3 3 4 3 2 3 7 4 6 2 2 1 4 2 1 0 5
2 2 2 3 2 2 3 4 4 5 2 2 6 3 4 2 4 3 2 1 3 2 2 3 4 3 4 4 4 4 3 3 2 4 1 4 3 3 0 2 2 4 3 5 5
Wind_Direction
1 359 359 356 357 358 360 1 3 1 2 355 350 332 324 327 297 151 209 175 181 173 174 170 171 109 90 78 86 117 69 154 193 170 201 173 138 178 286 118 114 6 152 144 143
355 355 355 353 352 354 354 356 356 355 351 345 344 333 321 324 171 209 185 182 172 171 160 158 132 136 60 82 55 86 103 213 183 182 183 162 147 168 154 153 42 64 91 139 149
353 352 351 351 347 350 350 350 352 348 341 336 334 330 324 322 350 198 175 184 175 173 121 171 147 124 97 133 246 101 172 165 215 168 143 146 164 146 143 226 199 169 158 159 162
351 350 348 349 344 346 347 345 348 343 338 328 326 325 326 342 157 151 176 200 170 184 218 132 120 77 109 133 135 329 276 163 157 189 137 156 138 227 180 232 159 169 161 158 171
348 346 345 346 342 342 343 342 345 343 337 321 329 327 286 10 253 74 144 190 153 174 243 147 120 172 111 103 137 57 345 186 165 141 121 140 178 187 212 150 130 143 163 174 185
346 344 343 343 341 339 340 341 342 341 331 312 336 323 227 158 304 245 177 177 164 167 329 121 167 153 97 79 126 108 54 5 80 148 149 135 3 141 209 148 142 160 186 191 195
344 343 341 340 340 339 337 340 339 338 323 292 341 319 318 205 291 189 175 176 177 173 135 208 132 69 54 51 53 59 71 5 56 159 169 110 265 230 191 167 164 183 200 201 212
340 341 339 338 340 339 338 339 345 13 359 330 339 87 238 312 289 207 200 193 214 236 263 115 140 104 79 126 19 61 37 34 255 146 204 126 263 222 175 167 185 194 201 210 210
339 339 338 338 341 339 341 339 350 36 14 6 39 53 273 319 270 277 227 281 81 64 150 126 64 91 94 105 25 17 205 210 329 199 136 188 277 319 168 182 191 203 214 216 217
340 338 338 339 342 341 348 336 354 331 359 5 2 34 345 207 329 268 224 244 353 95 50 52 50 54 47 77 250 209 221 224 216 213 191 213 253 335 194 200 202 206 224 229 218
340 340 339 339 341 343 7 1 10 349 22 254 284 265 271 306 287 211 169 139 256 63 99 27 74 241 251 221 213 191 198 244 225 212 156 231 266 251 229 221 217 217 224 229 238
340 340 340 338 339 1 21 87 93 281 307 266 244 271 269 257 307 187 164 135 152 162 153 26 301 249 321 96 148 148 255 268 114 12 160 69 268 332 270 222 211 223 232 235 242
341 342 340 340 341 357 30 111 347 293 226 297 225 210 231 159 210 225 134 134 122 101 66 158 266 303 16 354 112 217 201 107 58 45 89 347 313 350 329 244 212 243 246 241 235
341 342 343 343 13 339 316 337 343 174 54 280 263 265 164 154 271 209 175 134 54 157 163 285 295 334 342 323 132 332 243 122 117 60 278 11 279 314 306 296 247 243 239 245 246
337 339 341 343 319 310 314 334 342 150 40 310 211 242 71 148 182 338 139 52 160 186 96 256 312 326 331 298 181 291 61 92 96 130 107 354 56 275 338 315 282 256 256 267 253
332 335 332 333 313 295 321 332 78 44 339 34 184 151 121 349 50 92 108 66 144 134 20 228 262 221 223 24 73 120 55 39 53 70 21 334 84 294 299 290 308 299 274 252 271
329 327 317 305 273 302 323 350 49 120 334 89 183 158 108 183 186 96 121 126 151 89 340 342 282 316 206 73 25 85 66 353 3 8 241 300 22 246 289 311 265 293 315 323 324
329 323 313 296 286 292 324 48 62 300 273 306 103 91 170 166 225 106 109 220 169 98 113 143 325 1 342 107 173 40 138 145 231 263 270 318 244 262 230 303 308 301 302 313 326
332 329 313 318 324 154 71 55 211 224 281 324 38 102 239 214 153 138 182 215 215 170 165 160 271 297 35 111 107 189 42 148 105 25 41 263 295 319 272 279 352 337 334 325 340
334 325 308 315 141 61 73 238 255 228 326 326 95 130 177 155 152 149 189 213 240 190 145 212 301 255 170 100 39 134 146 35 14 161 287 291 285 244 310 292 303 327 321 331 337
339 7 337 168 80 47 146 243 284 264 224 295 42 40 55 335 172 178 193 272 242 66 122 140 118 280 59 219 204 84 340 58 116 124 175 272 276 225 259 278 217 264 307 323 339
350 2 37 107 52 11 185 207 284 294 316 318 113 55 63 173 128 205 181 233 326 149 138 113 130 223 237 266 219 143 177 133 121 242 160 149 273 281 279 317 217 278 301 321 326
356 267 22 270 130 307 296 285 265 307 303 350 47 22 12 59 86 46 23 8 35 127 161 181 31 34 348 358 358 333 110 96 103 75 192 136 267 166 247 249 245 308 323 330 324
34 356 324 54 8 127 353 297 305 283 262 342 48 48 38 31 13 60 20 350 11 78 56 89 104 143 185 213 200 312 315 142 138 114 180 225 285 299 253 243 270 306 315 330 327
54 272 203 288 336 90 33 295 321 320 329 18 23 49 274 42 30 32 3 1 9 30 54 92 126 150 212 234 226 248 322 172 211 192 172 272 209 263 242 254 222 256 11 6 345
120 7 352 281 331 278 156 268 232 272 280 348 107 13 100 111 137 6 57 40 244 352 63 8 171 90 267 263 334 264 298 260 132 132 263 285 280 272 339 304 227 56 77 51 338
306 292 99 289 55 92 228 247 268 336 317 209 164 101 72 165 202 228 218 284 280 352 93 73 123 84 267 338 6 352 281 322 102 72 317 236 286 279 271 310 1 313 291 343 310